CEB896 RPVM-RPLL

Flight info

Callsign CEB896
Flight time 1h 5m
Altitude 34000
Route MULOP4P MULOP W11 CONDE CONDE5R
Aircraft A320/M-L/C

Departure

Time 2026-05-05 04:57
Airport Mactan Cebu International Airport (RPVM)

Arrival

Time 2026-05-05 06:03
Airport Ninoy Aquino International Airport (RPLL)
Time Latitude Longitude Altitude Speed Heading
2026-05-05 04:06 10.31561 123.97974 37 ft 0 kts 314°
2026-05-05 04:43 10.31555 123.97979 39 ft 4 kts 314°
2026-05-05 04:43 10.31540 123.97995 39 ft 4 kts 309°
2026-05-05 04:43 10.31524 123.98018 39 ft 4 kts 299°
2026-05-05 04:44 10.31515 123.98043 37 ft 4 kts 268°
2026-05-05 04:44 10.31519 123.98059 35 ft 1 kts 225°
2026-05-05 04:44 10.31522 123.98061 36 ft 0 kts 225°
2026-05-05 04:49 10.31521 123.98061 36 ft 1 kts 225°
2026-05-05 04:49 10.31500 123.98040 36 ft 6 kts 224°
2026-05-05 04:50 10.31469 123.98009 37 ft 6 kts 225°
2026-05-05 04:50 10.31442 123.97980 39 ft 7 kts 226°
2026-05-05 04:50 10.31408 123.97944 39 ft 7 kts 226°
2026-05-05 04:50 10.31378 123.97914 39 ft 5 kts 224°
2026-05-05 04:51 10.31351 123.97895 36 ft 5 kts 198°
2026-05-05 04:51 10.31303 123.97918 39 ft 11 kts 137°
2026-05-05 04:51 10.31244 123.97974 38 ft 12 kts 139°
2026-05-05 04:51 10.31170 123.97954 38 ft 12 kts 223°
2026-05-05 04:52 10.31111 123.97894 38 ft 15 kts 224°
2026-05-05 04:52 10.31019 123.97803 36 ft 20 kts 224°
2026-05-05 04:52 10.30916 123.97700 37 ft 21 kts 224°
2026-05-05 04:52 10.30810 123.97592 38 ft 22 kts 226°
2026-05-05 04:53 10.30698 123.97481 39 ft 23 kts 222°
2026-05-05 04:53 10.30582 123.97366 39 ft 24 kts 225°
2026-05-05 04:53 10.30461 123.97244 38 ft 25 kts 225°
2026-05-05 04:53 10.30333 123.97115 38 ft 27 kts 225°
2026-05-05 04:54 10.30050 123.96832 37 ft 29 kts 225°
2026-05-05 04:54 10.29924 123.96709 38 ft 14 kts 204°
2026-05-05 04:54 10.29842 123.96748 38 ft 15 kts 134°
2026-05-05 04:55 10.29763 123.96829 35 ft 18 kts 135°
2026-05-05 04:55 10.29716 123.96891 34 ft 6 kts 91°
2026-05-05 04:55 10.29733 123.96918 32 ft 0 kts 45°
2026-05-05 04:56 10.29760 123.96945 33 ft 26 kts 45°
2026-05-05 04:56 10.30075 123.97263 34 ft 97 kts 44°
2026-05-05 04:57 10.30691 123.97883 35 ft 150 kts 45°
2026-05-05 04:57 10.31522 123.98712 310 ft 172 kts 45°
2026-05-05 04:57 10.32361 123.99563 1031 ft 170 kts 43°
2026-05-05 04:57 10.33200 124.00413 1698 ft 169 kts 45°
2026-05-05 04:58 10.34066 124.01285 2082 ft 186 kts 45°
2026-05-05 04:58 10.35032 124.02257 2313 ft 206 kts 46°
2026-05-05 04:58 10.36117 124.03343 2584 ft 231 kts 43°
2026-05-05 04:58 10.37616 124.04108 2934 ft 257 kts
2026-05-05 04:59 10.39391 124.03847 3627 ft 269 kts 341°
2026-05-05 04:59 10.41125 124.03028 4453 ft 274 kts 333°
2026-05-05 04:59 10.42782 124.02092 5226 ft 278 kts 333°
2026-05-05 04:59 10.44493 124.01148 6027 ft 281 kts 334°
2026-05-05 05:00 10.45080 124.00841 6308 ft 282 kts 335°
2026-05-05 05:00 10.51897 123.97795 9040 ft 298 kts 339°
2026-05-05 05:01 10.53836 123.97010 9757 ft 302 kts 340°
2026-05-05 05:01 10.55806 123.96218 10373 ft 309 kts 339°
2026-05-05 05:01 10.57880 123.95386 10552 ft 332 kts 339°
2026-05-05 05:01 10.60084 123.94499 10842 ft 348 kts 339°
2026-05-05 05:02 10.62353 123.93584 11424 ft 353 kts 339°
2026-05-05 05:02 10.64563 123.92451 12016 ft 359 kts 326°
2026-05-05 05:02 10.66482 123.90824 12670 ft 362 kts 313°
2026-05-05 05:02 10.68136 123.88886 13291 ft 364 kts 310°
2026-05-05 05:03 10.69794 123.86922 13883 ft 367 kts 311°
2026-05-05 05:03 10.71469 123.84946 14414 ft 370 kts 311°
2026-05-05 05:03 10.73159 123.82953 14923 ft 373 kts 311°
2026-05-05 05:03 10.74861 123.80945 15427 ft 377 kts 311°
2026-05-05 05:04 10.76560 123.78940 15928 ft 380 kts 311°
2026-05-05 05:04 10.78295 123.76891 16431 ft 384 kts 311°
2026-05-05 05:04 10.80046 123.74824 16932 ft 387 kts 311°
2026-05-05 05:04 10.81813 123.72740 17430 ft 391 kts 311°
2026-05-05 05:05 10.83594 123.70634 17918 ft 394 kts 311°
2026-05-05 05:05 10.85388 123.68510 18369 ft 397 kts 311°
2026-05-05 05:05 10.87197 123.66369 18774 ft 401 kts 311°
2026-05-05 05:05 10.89019 123.64211 19187 ft 403 kts 311°
2026-05-05 05:06 10.90854 123.62039 19620 ft 406 kts 311°
2026-05-05 05:06 10.92699 123.59854 20021 ft 409 kts 311°
2026-05-05 05:06 10.94559 123.57652 20431 ft 412 kts 311°
2026-05-05 05:06 10.96431 123.55434 20834 ft 414 kts 311°
2026-05-05 05:07 10.98316 123.53206 21226 ft 417 kts 311°
2026-05-05 05:07 11.00301 123.51049 21611 ft 418 kts 319°
2026-05-05 05:07 11.02601 123.49231 21988 ft 420 kts 327°
2026-05-05 05:07 11.05019 123.47547 22378 ft 422 kts 327°
2026-05-05 05:08 11.07454 123.45855 22752 ft 425 kts 327°
2026-05-05 05:08 11.09900 123.44151 23121 ft 427 kts 327°
2026-05-05 05:08 11.12360 123.42432 23476 ft 430 kts 326°
2026-05-05 05:08 11.14826 123.40704 23777 ft 432 kts 326°
2026-05-05 05:09 11.17281 123.38984 24087 ft 434 kts 326°
2026-05-05 05:09 11.19772 123.37241 24402 ft 435 kts 326°
2026-05-05 05:09 11.22273 123.35492 24717 ft 437 kts 326°
2026-05-05 05:09 11.24784 123.33741 25030 ft 439 kts 326°
2026-05-05 05:10 11.27311 123.31977 25345 ft 440 kts 326°
2026-05-05 05:10 11.29841 123.30207 25662 ft 442 kts 326°
2026-05-05 05:10 11.32378 123.28431 25970 ft 443 kts 326°
2026-05-05 05:10 11.34926 123.26653 26270 ft 445 kts 326°
2026-05-05 05:11 11.37485 123.24868 26577 ft 446 kts 326°
2026-05-05 05:11 11.40049 123.23073 26876 ft 448 kts 326°
2026-05-05 05:11 11.42618 123.21270 27164 ft 449 kts 326°
2026-05-05 05:11 11.45199 123.19462 27438 ft 451 kts 326°
2026-05-05 05:12 11.47792 123.17646 27723 ft 453 kts 326°
2026-05-05 05:12 11.50393 123.15821 27995 ft 455 kts 326°
2026-05-05 05:12 11.53006 123.13988 28285 ft 456 kts 326°
2026-05-05 05:12 11.55624 123.12147 28560 ft 458 kts 326°
2026-05-05 05:13 11.58257 123.10296 28798 ft 461 kts 326°
2026-05-05 05:13 11.60876 123.08462 29033 ft 463 kts 326°
2026-05-05 05:13 11.63536 123.06602 29307 ft 465 kts 326°
2026-05-05 05:13 11.66199 123.04738 29575 ft 466 kts 326°
2026-05-05 05:14 11.68872 123.02862 29855 ft 467 kts 326°
2026-05-05 05:14 11.71555 123.00976 30060 ft 469 kts 326°
2026-05-05 05:14 11.74244 122.99089 30304 ft 469 kts 326°
2026-05-05 05:14 11.76934 122.97200 30521 ft 470 kts 326°
2026-05-05 05:15 11.79638 122.95298 30705 ft 472 kts 325°
2026-05-05 05:15 11.81433 122.94030 30836 ft 473 kts 325°
2026-05-05 05:15 11.84137 122.92120 31149 ft 472 kts 325°
2026-05-05 05:15 11.87741 122.89585 31588 ft 470 kts 325°
2026-05-05 05:16 11.90394 122.87723 31903 ft 468 kts 325°
2026-05-05 05:16 11.93081 122.85838 32236 ft 467 kts 325°
2026-05-05 05:16 11.94854 122.84595 32442 ft 466 kts 325°
2026-05-05 05:16 11.98421 122.82089 32890 ft 464 kts 324°
2026-05-05 05:17 12.00180 122.80851 33097 ft 463 kts 324°
2026-05-05 05:17 12.02826 122.78986 33426 ft 462 kts 324°
2026-05-05 05:17 12.05477 122.77118 33692 ft 463 kts 324°
2026-05-05 05:17 12.08131 122.75249 33847 ft 463 kts 324°
2026-05-05 05:18 12.10760 122.73396 33886 ft 455 kts 324°
2026-05-05 05:18 12.15944 122.69744 33887 ft 451 kts 324°
2026-05-05 05:19 12.21101 122.66108 33884 ft 450 kts 324°
2026-05-05 05:19 12.26256 122.62459 33885 ft 450 kts 324°
2026-05-05 05:20 12.31411 122.58814 33891 ft 449 kts 324°
2026-05-05 05:20 12.36529 122.55205 33888 ft 449 kts 324°
2026-05-05 05:21 12.41666 122.51571 33884 ft 449 kts 324°
2026-05-05 05:21 12.46813 122.47935 33882 ft 449 kts 324°
2026-05-05 05:22 12.51957 122.44303 33877 ft 449 kts 324°
2026-05-05 05:22 12.57101 122.40660 33877 ft 449 kts 323°
2026-05-05 05:23 12.62236 122.37010 33884 ft 449 kts 324°
2026-05-05 05:23 12.67385 122.33367 33885 ft 450 kts 324°
2026-05-05 05:24 12.72532 122.29732 33906 ft 450 kts 324°
2026-05-05 05:24 12.77673 122.26090 33896 ft 449 kts 324°
2026-05-05 05:25 12.82815 122.22439 33887 ft 449 kts 324°
2026-05-05 05:25 12.87946 122.18794 33882 ft 449 kts 324°
2026-05-05 05:26 12.93087 122.15142 33880 ft 449 kts 324°
2026-05-05 05:26 12.98189 122.11514 33879 ft 449 kts 324°
2026-05-05 05:27 13.03319 122.07867 33881 ft 449 kts 324°
2026-05-05 05:27 13.11019 122.02393 33873 ft 449 kts 324°
2026-05-05 05:28 13.16154 121.98739 33868 ft 449 kts 324°
2026-05-05 05:28 13.21279 121.95084 33867 ft 449 kts 324°
2026-05-05 05:29 13.26409 121.91424 33873 ft 449 kts 324°
2026-05-05 05:29 13.31545 121.87764 33875 ft 449 kts 324°
2026-05-05 05:30 13.36686 121.84105 33879 ft 450 kts 324°
2026-05-05 05:30 13.41830 121.80434 33696 ft 449 kts 324°
2026-05-05 05:31 13.44376 121.78616 32826 ft 453 kts 324°
2026-05-05 05:31 13.46951 121.76778 32318 ft 449 kts 324°
2026-05-05 05:31 13.49506 121.74953 31782 ft 446 kts 324°
2026-05-05 05:31 13.52045 121.73136 31251 ft 443 kts 324°
2026-05-05 05:32 13.54565 121.71330 30727 ft 440 kts 324°
2026-05-05 05:32 13.57074 121.69532 30210 ft 438 kts 324°
2026-05-05 05:32 13.59569 121.67747 29663 ft 436 kts 324°
2026-05-05 05:32 13.62046 121.65975 29153 ft 431 kts 324°
2026-05-05 05:33 13.64493 121.64224 28664 ft 427 kts 324°
2026-05-05 05:33 13.66919 121.62487 28214 ft 422 kts 324°
2026-05-05 05:33 13.69228 121.60711 28052 ft 409 kts 318°
2026-05-05 05:33 13.71346 121.58786 27637 ft 404 kts 318°
2026-05-05 05:34 13.73437 121.56874 27175 ft 401 kts 317°
2026-05-05 05:34 13.75512 121.54970 26704 ft 399 kts 317°
2026-05-05 05:34 13.77577 121.53077 26244 ft 397 kts 317°
2026-05-05 05:34 13.79632 121.51196 25796 ft 394 kts 317°
2026-05-05 05:35 13.81677 121.49326 25360 ft 392 kts 317°
2026-05-05 05:35 13.83707 121.47470 24930 ft 390 kts 317°
2026-05-05 05:35 13.85725 121.45625 24414 ft 386 kts 317°
2026-05-05 05:35 13.87730 121.43791 23708 ft 384 kts 317°
2026-05-05 05:36 13.89715 121.41969 23085 ft 379 kts 317°
2026-05-05 05:36 13.91634 121.40210 22616 ft 369 kts 317°
2026-05-05 05:36 13.93529 121.38472 22165 ft 360 kts 317°
2026-05-05 05:36 13.95387 121.36772 21736 ft 357 kts 318°
2026-05-05 05:37 13.97243 121.35073 21300 ft 357 kts 318°
2026-05-05 05:37 13.99095 121.33374 20867 ft 357 kts 318°
2026-05-05 05:37 14.00953 121.31671 20430 ft 357 kts 318°
2026-05-05 05:37 14.02800 121.29970 20000 ft 357 kts 317°
2026-05-05 05:38 14.04429 121.28045 19566 ft 356 kts 303°
2026-05-05 05:38 14.05605 121.25803 19137 ft 356 kts 291°
2026-05-05 05:38 14.06489 121.23425 18711 ft 352 kts 290°
2026-05-05 05:38 14.07357 121.21095 18288 ft 345 kts 290°
2026-05-05 05:39 14.08209 121.18818 17918 ft 336 kts 290°
2026-05-05 05:39 14.09038 121.16609 17548 ft 335 kts 290°
2026-05-05 05:39 14.09877 121.14373 17157 ft 335 kts 290°
2026-05-05 05:39 14.10715 121.12138 16756 ft 335 kts 291°
2026-05-05 05:40 14.11567 121.09867 16352 ft 335 kts 291°
2026-05-05 05:40 14.12398 121.07648 15957 ft 337 kts 291°
2026-05-05 05:40 14.13237 121.05405 15667 ft 333 kts 291°
2026-05-05 05:40 14.14059 121.03203 15541 ft 323 kts 291°
2026-05-05 05:41 14.14842 121.01097 15416 ft 305 kts 291°
2026-05-05 05:41 14.15587 120.99087 15177 ft 297 kts 291°
2026-05-05 05:41 14.16325 120.97099 14921 ft 297 kts 291°
2026-05-05 05:41 14.17067 120.95110 14559 ft 300 kts 291°
2026-05-05 05:42 14.17817 120.93098 14098 ft 300 kts 291°
2026-05-05 05:42 14.18249 120.91015 13646 ft 297 kts 269°
2026-05-05 05:42 14.17883 120.88949 13136 ft 293 kts 246°
2026-05-05 05:42 14.16800 120.87211 12685 ft 285 kts 223°
2026-05-05 05:43 14.15340 120.86114 12316 ft 277 kts 202°
2026-05-05 05:43 14.13648 120.85607 11950 ft 268 kts 181°
2026-05-05 05:43 14.11826 120.85730 11569 ft 260 kts 161°
2026-05-05 05:43 14.10187 120.86405 11189 ft 258 kts 151°
2026-05-05 05:44 14.08593 120.87287 10812 ft 260 kts 148°
2026-05-05 05:44 14.07043 120.88217 10439 ft 256 kts 147°
2026-05-05 05:44 14.05522 120.89149 10071 ft 252 kts 147°
2026-05-05 05:44 14.04064 120.90159 9714 ft 246 kts 135°
2026-05-05 05:45 14.02993 120.91499 9578 ft 243 kts 119°
2026-05-05 05:45 14.02365 120.93096 9444 ft 239 kts 102°
2026-05-05 05:45 14.02260 120.94785 9322 ft 238 kts 84°
2026-05-05 05:45 14.02675 120.96421 9195 ft 241 kts 68°
2026-05-05 05:46 14.03582 120.97868 9077 ft 242 kts 50°
2026-05-05 05:46 14.04903 120.98955 8946 ft 246 kts 32°
2026-05-05 05:46 14.06530 120.99547 8821 ft 252 kts 13°
2026-05-05 05:46 14.08285 120.99546 8695 ft 256 kts 352°
2026-05-05 05:47 14.09973 120.98944 8575 ft 260 kts 337°
2026-05-05 05:47 14.11579 120.98082 8444 ft 260 kts 333°
2026-05-05 05:47 14.13151 120.97150 8329 ft 262 kts 331°
2026-05-05 05:47 14.14724 120.96189 8200 ft 264 kts 333°
2026-05-05 05:48 14.16305 120.95224 8078 ft 264 kts 332°
2026-05-05 05:48 14.17886 120.94266 7969 ft 267 kts 332°
2026-05-05 05:48 14.19524 120.93287 7839 ft 275 kts 332°
2026-05-05 05:48 14.21191 120.92294 7721 ft 276 kts 332°
2026-05-05 05:49 14.22858 120.91305 7602 ft 276 kts 332°
2026-05-05 05:49 14.24519 120.90310 7480 ft 275 kts 329°
2026-05-05 05:49 14.25831 120.88942 7372 ft 266 kts 297°
2026-05-05 05:49 14.26278 120.87141 7253 ft 258 kts 265°
2026-05-05 05:50 14.25825 120.85418 7132 ft 245 kts 237°
2026-05-05 05:50 14.24995 120.83924 7003 ft 237 kts 236°
2026-05-05 05:50 14.24182 120.82466 6881 ft 232 kts 236°
2026-05-05 05:50 14.23388 120.81040 6764 ft 228 kts 237°
2026-05-05 05:51 14.22601 120.79629 6647 ft 226 kts 237°
2026-05-05 05:51 14.21975 120.78166 6545 ft 221 kts 257°
2026-05-05 05:51 14.22024 120.76629 6428 ft 212 kts 285°
2026-05-05 05:51 14.22689 120.75332 6305 ft 200 kts 313°
2026-05-05 05:52 14.23745 120.74484 6191 ft 187 kts 334°
2026-05-05 05:52 14.24853 120.73842 6077 ft 180 kts 333°
2026-05-05 05:52 14.25932 120.73209 5954 ft 177 kts 333°
2026-05-05 05:52 14.27003 120.72579 5831 ft 177 kts 333°
2026-05-05 05:53 14.28060 120.71959 5715 ft 178 kts 334°
2026-05-05 05:53 14.28990 120.71415 5613 ft 178 kts 334°
2026-05-05 05:53 14.30066 120.70789 5491 ft 177 kts 335°
2026-05-05 05:53 14.31217 120.70413 5364 ft 170 kts 359°
2026-05-05 05:54 14.32370 120.70512 5247 ft 164 kts 22°
2026-05-05 05:54 14.33368 120.71021 5131 ft 158 kts 42°
2026-05-05 05:54 14.34098 120.71843 5015 ft 152 kts 63°
2026-05-05 05:54 14.34618 120.72771 4917 ft 147 kts 64°
2026-05-05 05:55 14.35125 120.73680 4794 ft 145 kts 65°
2026-05-05 05:55 14.35628 120.74582 4679 ft 145 kts 65°
2026-05-05 05:55 14.36131 120.75483 4553 ft 145 kts 64°
2026-05-05 05:55 14.36630 120.76380 4434 ft 144 kts 65°
2026-05-05 05:56 14.37133 120.77281 4310 ft 144 kts 66°
2026-05-05 05:56 14.37562 120.78051 4191 ft 144 kts 64°
2026-05-05 05:56 14.38058 120.78941 4105 ft 143 kts 64°
2026-05-05 05:56 14.38555 120.79834 4048 ft 143 kts 64°
2026-05-05 05:57 14.39052 120.80724 3990 ft 143 kts 64°
2026-05-05 05:57 14.39548 120.81616 3847 ft 143 kts 64°
2026-05-05 05:57 14.40042 120.82502 3689 ft 142 kts 65°
2026-05-05 05:57 14.40535 120.83386 3510 ft 142 kts 65°
2026-05-05 05:58 14.41026 120.84269 3338 ft 142 kts 63°
2026-05-05 05:58 14.41520 120.85155 3162 ft 142 kts 63°
2026-05-05 05:58 14.42005 120.86027 2989 ft 142 kts 63°
2026-05-05 05:58 14.42502 120.86919 2807 ft 141 kts 63°
2026-05-05 05:59 14.42992 120.87800 2617 ft 142 kts 62°
2026-05-05 05:59 14.43483 120.88681 2440 ft 141 kts 62°
2026-05-05 05:59 14.43968 120.89554 2263 ft 143 kts 63°
2026-05-05 05:59 14.44463 120.90443 2079 ft 143 kts 63°
2026-05-05 06:00 14.44958 120.91332 1897 ft 143 kts 64°
2026-05-05 06:00 14.45454 120.92225 1719 ft 143 kts 64°
2026-05-05 06:00 14.45950 120.93118 1527 ft 144 kts 64°
2026-05-05 06:00 14.46451 120.94019 1341 ft 144 kts 64°
2026-05-05 06:01 14.46949 120.94915 1142 ft 144 kts 63°
2026-05-05 06:01 14.47446 120.95809 993 ft 144 kts 62°
2026-05-05 06:01 14.47940 120.96695 823 ft 140 kts 63°
2026-05-05 06:01 14.48428 120.97575 582 ft 141 kts 63°
2026-05-05 06:02 14.48913 120.98447 431 ft 141 kts 64°
2026-05-05 06:02 14.49397 120.99315 276 ft 139 kts 63°
2026-05-05 06:02 14.49876 121.00176 101 ft 137 kts 63°
2026-05-05 06:02 14.50314 121.00970 68 ft 106 kts 60°
2026-05-05 06:03 14.50538 121.01368 61 ft 37 kts 60°
2026-05-05 06:03 14.50638 121.01541 64 ft 20 kts 57°
2026-05-05 06:03 14.50689 121.01624 65 ft 21 kts 57°
2026-05-05 06:03 14.50797 121.01742 68 ft 14 kts 39°
2026-05-05 06:04 14.50831 121.01770 65 ft 8 kts 37°
2026-05-05 06:04 14.50877 121.01786 60 ft 6 kts 352°
2026-05-05 06:04 14.50909 121.01764 68 ft 6 kts 319°
2026-05-05 06:04 14.50959 121.01714 66 ft 10 kts 315°
2026-05-05 06:05 14.51007 121.01665 61 ft 9 kts 315°
2026-05-05 06:05 14.51051 121.01620 65 ft 9 kts 315°
2026-05-05 06:05 14.51091 121.01578 63 ft 8 kts 315°
2026-05-05 06:05 14.51127 121.01541 68 ft 7 kts 315°
2026-05-05 06:06 14.51159 121.01508 63 ft 6 kts 315°
2026-05-05 06:06 14.51195 121.01471 61 ft 8 kts 316°
2026-05-05 06:06 14.51235 121.01432 65 ft 7 kts 322°
2026-05-05 06:06 14.51274 121.01428 66 ft 0 kts 18°
2026-05-05 06:08 14.51293 121.01439 67 ft 9 kts 37°
2026-05-05 06:08 14.51334 121.01492 64 ft 9 kts 53°
2026-05-05 06:09 14.51376 121.01536 62 ft 8 kts 30°
2026-05-05 06:09 14.51419 121.01522 62 ft 6 kts 319°
2026-05-05 06:09 14.51477 121.01462 64 ft 20 kts 314°
2026-05-05 06:09 14.51578 121.01359 64 ft 19 kts 314°
2026-05-05 06:10 14.51641 121.01306 66 ft 10 kts 347°
2026-05-05 06:10 14.51680 121.01345 64 ft 8 kts 85°
2026-05-05 06:10 14.51653 121.01387 61 ft 3 kts 134°
2026-05-05 06:10 14.51648 121.01401 67 ft 3 kts 90°
2026-05-05 06:11 14.51673 121.01432 59 ft 6 kts 44°
2026-05-05 06:11 14.51699 121.01458 64 ft 5 kts 45°
2026-05-05 06:11 14.51710 121.01469 67 ft 0 kts 44°